Location: Plymouth Junction
(43.2275°N, 93.1308°W)
Time: 18:41:37
(UTC+00:00)

Tiangong - Visible Passes

Search period start: 07 December 2025 00:00
Search period end: 17 December 2025 00:00
Orbit: 385 x 397 km, 41.5° (Epoch: 06 December)

Date Brightness Start Highest point End Pass type
(mag) Time Alt. Az. Time Alt. Az. Time Alt. Az.
07 Dec -1.3 11:31:34 45° SSE 11:31:34 45° SSE 11:34:18 10° ESE visible
08 Dec 1.6 10:36:43 10° ESE 10:36:43 10° ESE 10:36:45 10° ESE visible
08 Dec -0.5 12:09:04 20° WSW 12:10:15 25° SSW 12:12:58 10° SE visible
09 Dec 0.2 11:14:12 22° SSE 11:14:12 22° SSE 11:15:39 10° SE visible
10 Dec 0.1 11:51:40 15° SSW 11:51:40 15° SSW 11:53:33 10° S visible
